Jackson Hawkins Field, MS

9:16 AM CST on December 05, 2019 (GMT -0600)
Hawkins

Weather History for KHKS - July, 2019

Change the Weather History Date:

Monday, July 22, 2019

  Actual Average (WUND) Record (WUND)
Temperature  
Mean Temperature 82 °F -  
Max Temperature 91 °F - - (-1)
Min Temperature 73 °F - - (-1)
Cooling Degree Days 17    
Month to date cooling degree days 412  
Year to date cooling degree days 1317  
Since 1 June cooling degree days 860  
Growing Degree Days 32 (Base 50)    
Moisture  
Dew Point 74 °F    
Average Humidity 80    
Maximum Humidity 100    
Minimum Humidity 59    
Precipitation  
Precipitation 0.24 in - - ()
Month to date precipitation 5.48  
Year to date precipitation 34.44  
Sea Level Pressure  
Sea Level Pressure 29.96 in    
Wind  
Wind Speed 5 mph (SW)    
Max Wind Speed 14 mph    
Max Gust Speed 23 mph    
Visibility 9 miles    
Events Rain , Thunderstorm    
Averages and records for this station are not official NWS values.
T = Trace of Precipitation, MM = Missing Value Source: NWS Daily Summary

Daily Weather History Graph

Daily Weather History Graph

Search for Another Location

Airport or City:

Astronomy

Jul. 22, 2019 Rise Set
Actual Time 6:08 AM CDT 8:05 PM CDT
Civil Twilight 5:41 AM CDT 8:32 PM CDT
Nautical Twilight 5:08 AM CDT 9:05 PM CDT
Astronomical Twilight 4:32 AM CDT 9:41 PM CDT
Moon 11:43 PM CDT (7/22) 11:10 AM CDT (7/22)
Length of Visible Light 14h 51m
Length of Day
13h 56m
Waning Gibbous, 72% of the Moon is Illuminated
Jul 22
Waning Gibbous
Jul 24
Last Quarter
Jul 31
New
Aug 7
First Quarter
Aug 15
Full

Hourly Weather History & Observations

Time (CDT) Temp. Heat Index Dew Point Humidity Pressure Visibility Wind Dir Wind Speed Gust Speed Precip Events Conditions
12:53 AM 73.0 °F - 73.0 °F 100% 29.95 in 10.0 mi SE 4.6 mph - N/A   Clear
1:21 AM 73.9 °F - 73.9 °F 100% 29.99 in 10.0 mi South 6.9 mph - N/A   Scattered Clouds
1:30 AM 73.9 °F - 73.9 °F 100% 30.00 in 9.0 mi South 5.8 mph - N/A   Mostly Cloudy
1:53 AM 73.9 °F - 73.9 °F 100% 29.96 in 7.0 mi South 6.9 mph - N/A   Overcast
2:12 AM 73.9 °F - 73.9 °F 100% 29.99 in 10.0 mi SSE 6.9 mph - N/A   Mostly Cloudy
2:53 AM 73.9 °F - 73.9 °F 100% 29.97 in 10.0 mi South 4.6 mph - N/A   Mostly Cloudy
3:16 AM 73.0 °F - 73.0 °F 100% 29.99 in 10.0 mi South 4.6 mph - N/A   Scattered Clouds
3:32 AM 73.0 °F - 73.0 °F 100% 29.99 in 10.0 mi South 3.5 mph - N/A   Mostly Cloudy
3:45 AM 73.9 °F - 73.0 °F 97% 29.99 in 10.0 mi SSW 3.5 mph - N/A   Overcast
3:53 AM 73.9 °F - 73.0 °F 97% 29.97 in 10.0 mi SSE 3.5 mph - N/A   Overcast
4:53 AM 73.9 °F - 73.0 °F 97% 29.98 in 10.0 mi SSW 4.6 mph - N/A   Overcast
5:53 AM 73.9 °F - 72.0 °F 93% 29.99 in 10.0 mi WSW 6.9 mph - N/A   Overcast
6:53 AM 73.0 °F - 72.0 °F 96% 29.99 in 10.0 mi West 8.1 mph - N/A   Overcast
7:53 AM 73.9 °F - 73.0 °F 97% 30.01 in 10.0 mi Calm Calm - N/A   Mostly Cloudy
8:19 AM 75.9 °F - 73.0 °F 91% 30.03 in 10.0 mi Calm Calm - N/A   Scattered Clouds
8:53 AM 78.1 °F - 73.0 °F 84% 30.00 in 10.0 mi WSW 3.5 mph - N/A   Scattered Clouds
9:53 AM 81.0 °F 85.8 °F 73.0 °F 77% 29.99 in 10.0 mi West 5.8 mph - N/A   Partly Cloudy
10:53 AM 82.0 °F 87.4 °F 73.0 °F 74% 29.99 in 10.0 mi Calm Calm - N/A   Scattered Clouds
11:53 AM 86.0 °F 93.8 °F 73.9 °F 67% 29.98 in 10.0 mi West 6.9 mph - N/A   Clear
12:53 PM 87.1 °F 96.3 °F 75.0 °F 67% 29.96 in 10.0 mi Variable 3.5 mph - N/A   Scattered Clouds
1:20 PM 86.0 °F 95.1 °F 75.0 °F 70% 29.98 in 10.0 mi West 6.9 mph - N/A   Mostly Cloudy
1:28 PM 88.0 °F 97.5 °F 75.0 °F 65% 29.98 in 10.0 mi Calm Calm - N/A   Scattered Clouds
1:53 PM 88.0 °F 97.5 °F 75.0 °F 65% 29.94 in 10.0 mi Variable 3.5 mph - N/A   Partly Cloudy
2:53 PM 89.1 °F 98.0 °F 73.9 °F 61% 29.92 in 10.0 mi Calm Calm - N/A   Partly Cloudy
3:53 PM 90.0 °F 100.2 °F 75.0 °F 61% 29.91 in 10.0 mi WSW 4.6 mph - N/A   Scattered Clouds
4:53 PM 90.0 °F 100.2 °F 75.0 °F 61% 29.88 in 10.0 mi South 4.6 mph - N/A   Clear
5:53 PM 88.0 °F 97.5 °F 75.0 °F 65% 29.89 in 10.0 mi WSW 8.1 mph - N/A   Clear
6:22 PM 87.1 °F 96.3 °F 75.0 °F 67% 29.92 in 10.0 mi SW 5.8 mph - N/A Thunderstorm Clear
6:44 PM 86.0 °F 96.0 °F 75.9 °F 72% 29.91 in 10.0 mi WSW 6.9 mph - N/A Thunderstorm Thunderstorm
6:53 PM 86.0 °F 96.0 °F 75.9 °F 72% 29.89 in 10.0 mi WSW 8.1 mph - N/A Thunderstorm Thunderstorm
7:40 PM 80.1 °F 84.2 °F 73.0 °F 79% 29.95 in 10.0 mi NNW 13.8 mph 23.0 mph N/A Thunderstorm Mostly Cloudy
7:50 PM 77.0 °F - 71.6 °F 83% 29.95 in 3.0 mi NW 6.9 mph - 0.06 in Rain Heavy Rain
7:53 PM 75.0 °F - 72.0 °F 90% 29.93 in 2.5 mi WNW 9.2 mph - 0.07 in Rain Rain
8:00 PM 73.9 °F - 73.0 °F 97% 29.96 in 6.0 mi NW 6.9 mph - 0.00 in Rain , Thunderstorm Light Thunderstorms and Rain
8:53 PM 73.9 °F - 73.9 °F 100% 29.96 in 6.0 mi East 3.5 mph - 0.07 in Rain Rain
10:53 PM 75.0 °F - 73.9 °F 96% 29.93 in 10.0 mi West 3.5 mph - 0.01 in   Partly Cloudy
11:53 PM 75.0 °F - 73.9 °F 96% 29.93 in 8.0 mi NW 3.5 mph - 0.01 in Rain Light Rain